Theta_e
302 303 303 302 302 302 301 301 301 301 302 301 302 303 301 300 301 305 304 302 302 300 302 303 303 302 303 302 302 299 299 300 304 303 303 301 302 301 300 301 301 299 297 298 298
304 306 307 307 306 304 303 302 301 301 300 302 301 303 302 301 303 305 303 300 300 300 301 302 302 302 302 303 302 299 299 302 302 301 301 301 301 300 301 301 300 297 296 297 297
308 309 311 312 311 309 304 302 302 301 300 301 301 303 303 302 307 305 300 300 300 300 301 301 302 303 304 303 303 302 302 303 302 301 301 301 300 299 299 298 297 298 297 296 295
308 310 311 312 312 309 307 303 301 301 301 301 301 303 303 305 305 302 300 300 301 301 302 302 302 303 304 303 303 301 301 302 301 301 300 300 299 299 298 298 298 298 297 295 294
309 310 311 312 312 312 310 303 301 299 301 301 301 303 304 304 303 301 300 302 302 302 301 301 302 302 304 302 302 301 301 302 301 300 299 299 298 298 298 297 296 295 295 295 294
310 310 311 312 312 312 303 301 300 299 301 301 301 303 305 303 301 300 301 301 302 302 301 301 301 301 302 302 301 301 302 301 300 300 300 300 299 299 298 295 294 295 294 294 293
313 313 312 312 313 313 302 299 299 300 301 301 302 305 305 303 300 300 301 300 301 302 301 301 301 302 301 302 302 301 301 301 301 300 301 299 300 298 297 295 295 294 294 294 293
315 314 313 313 313 313 303 300 300 300 301 302 303 306 299 300 300 300 301 301 301 301 302 301 301 301 302 301 302 302 302 303 303 300 300 300 301 300 296 295 295 294 292 293 293
315 314 315 314 313 313 304 302 301 300 301 302 303 303 300 299 299 300 301 301 301 301 301 301 302 301 301 301 301 302 304 303 302 300 299 299 300 299 295 295 294 293 292 291 291
316 314 313 315 313 311 305 303 301 303 301 301 301 301 299 300 299 300 299 300 301 301 302 302 301 300 299 301 302 306 304 302 301 301 299 299 299 299 297 295 295 293 292 291 290
312 312 312 313 314 308 303 303 301 303 301 301 300 299 299 299 299 300 299 300 300 300 301 302 302 303 302 302 302 302 301 301 299 300 299 299 298 298 297 296 296 293 292 291 288
309 310 310 313 314 307 302 300 299 300 303 301 300 298 299 299 299 299 299 300 300 300 301 301 302 303 303 302 302 301 301 300 299 299 298 298 298 298 296 296 295 294 291 289 287
307 308 309 312 313 306 301 299 301 302 304 304 298 299 298 298 299 300 299 300 301 302 301 301 304 303 302 301 302 301 301 301 301 298 297 296 297 294 297 295 293 292 290 287 286
306 307 310 313 310 306 301 300 301 302 304 307 299 299 299 298 299 298 298 300 301 301 302 302 303 303 303 301 300 301 300 299 299 295 298 295 298 297 298 296 295 292 289 285 285
304 307 310 311 310 304 302 300 301 302 311 302 298 297 298 298 298 299 297 298 299 302 299 301 302 302 303 302 300 300 298 298 298 293 290 296 290 297 296 296 295 293 288 285 285
305 306 310 309 307 303 301 302 303 308 313 303 298 299 299 299 299 298 299 298 298 299 300 300 299 300 301 299 299 297 300 298 297 296 291 293 295 300 295 293 294 290 287 287 285
306 305 308 308 305 305 303 305 305 317 307 306 301 299 299 299 301 301 301 301 302 309 305 304 301 298 298 299 298 298 298 293 293 290 296 295 297 299 293 291 289 288 287 283 283
304 306 306 306 304 303 306 302 306 297 311 303 301 302 300 301 303 303 304 306 304 305 307 306 308 300 299 300 302 299 295 295 292 293 294 297 295 298 289 282 278 280 278 284 283
305 305 304 302 304 303 306 300 300 303 307 307 307 308 307 301 302 304 302 303 302 303 305 307 308 297 296 296 297 299 301 295 288 285 292 292 294 297 293 288 283 281 287 284 282
306 303 301 301 303 305 301 302 305 303 303 304 311 309 309 300 303 303 303 301 301 300 298 302 303 299 296 296 295 297 296 297 291 293 293 294 293 297 293 288 285 285 284 282 281
305 305 301 301 303 305 299 296 305 300 302 304 307 308 303 302 304 303 306 302 301 301 299 300 301 301 296 295 295 295 296 296 293 291 290 296 296 288 289 283 285 286 284 279 278
306 303 299 301 301 301 307 305 302 300 298 302 300 301 299 299 300 303 305 304 301 300 301 300 301 305 303 292 292 294 289 291 293 291 285 292 298 281 280 277 278 283 284 278 277
303 301 299 300 298 301 302 302 300 301 300 301 302 301 296 296 300 301 301 300 299 300 301 299 302 305 305 297 293 292 292 289 287 287 287 293 297 280 275 279 283 279 278 277 279
301 302 299 299 299 299 303 303 303 300 301 301 302 301 296 292 296 296 302 299 298 299 300 298 300 303 307 300 292 292 288 292 293 286 285 292 292 297 287 284 283 278 276 272 272
302 300 295 302 301 300 301 303 303 303 299 300 300 299 296 296 295 294 298 300 299 299 299 298 300 299 300 297 288 290 287 291 293 286 295 288 286 293 292 288 279 271 269 272 271
301 298 298 299 300 301 301 301 303 304 301 301 300 301 300 299 298 300 297 298 299 298 299 296 300 297 298 289 283 288 286 288 293 281 286 290 294 290 276 268 274 274 269 270 269
301 300 301 301 300 300 301 300 302 301 301 303 301 301 300 299 296 295 296 296 296 295 299 299 299 299 296 291 292 293 286 285 283 278 290 290 290 274 283 276 276 276 272 273 271
Wind_Speed
10 11 11 12 12 13 12 13 11 9 7 6 3 2 3 5 8 3 1 6 7 8 7 7 2 3 2 2 3 3 3 3 3 5 2 1 1 2 4 4 1 3 4 6 6
10 11 11 11 12 13 13 14 11 9 8 5 4 3 4 6 8 1 1 8 7 5 3 6 3 5 3 1 2 4 3 7 1 1 3 1 1 1 1 3 3 4 2 7 4
10 11 12 13 14 13 14 15 12 10 8 6 4 3 2 3 2 3 4 5 5 2 2 3 2 1 2 2 2 3 5 3 2 4 2 2 2 2 3 6 9 6 9 7 5
10 12 13 14 14 15 16 16 13 11 10 6 4 2 1 0 3 2 4 3 3 1 3 1 1 1 3 3 2 2 4 4 4 4 4 3 2 4 7 7 4 7 4 7 8
10 12 13 15 16 18 20 16 14 13 9 5 3 2 1 0 4 1 2 2 2 2 2 1 1 0 3 1 1 3 3 4 2 3 5 2 7 7 8 8 6 7 6 6 6
10 12 14 15 17 21 20 16 15 11 8 2 2 2 1 3 5 1 1 1 3 3 3 4 2 1 1 2 3 1 3 7 7 4 3 3 2 3 4 2 8 8 9 8 8
10 11 13 15 17 21 19 17 13 7 4 2 3 2 1 3 1 1 1 2 3 2 2 2 1 1 2 1 1 2 5 7 5 5 3 2 8 10 6 6 8 9 9 7 7
11 11 13 16 18 21 19 15 7 4 1 2 2 2 3 2 3 1 2 2 2 2 2 2 2 1 1 0 2 2 1 3 1 6 2 4 8 5 4 8 11 10 9 7 6
11 12 13 15 17 20 18 13 4 2 2 2 1 1 4 2 2 1 1 1 1 0 1 1 1 1 2 3 3 1 4 4 6 7 3 5 8 5 7 8 9 9 9 8 6
8 10 14 13 15 18 16 7 1 2 1 2 3 1 0 2 2 1 1 1 1 0 1 1 3 2 2 3 5 4 4 5 5 2 4 7 18 15 9 10 14 10 8 8 7
10 11 14 12 12 14 13 1 4 2 3 2 2 2 2 1 2 1 1 1 1 1 3 2 2 6 8 7 1 2 3 6 3 2 2 8 12 20 11 12 11 10 9 9 6
10 12 14 11 9 9 6 5 3 2 5 3 3 2 1 1 2 1 1 1 2 3 2 2 6 2 3 3 5 3 3 6 6 2 3 6 17 20 4 5 7 8 7 7 5
12 12 15 8 5 4 9 4 1 1 1 3 0 1 1 1 2 3 1 2 4 3 6 6 0 4 2 3 3 4 5 3 3 7 2 8 8 5 4 2 1 4 5 5 6
13 10 11 7 2 2 4 4 1 1 3 2 0 1 1 1 3 1 0 1 2 4 3 5 1 5 4 5 5 2 2 2 1 4 3 4 6 7 4 6 4 5 6 6 3
17 7 4 2 1 2 2 1 1 1 4 1 1 1 1 2 2 0 1 1 4 3 5 4 4 5 3 4 5 3 1 1 3 3 4 1 3 8 3 7 7 8 7 5 4
17 6 3 2 1 3 1 1 2 4 6 1 1 2 2 3 2 0 1 1 1 2 3 6 1 2 3 3 2 3 4 4 3 3 3 4 3 7 4 6 1 2 6 4 4
6 1 2 2 2 2 1 2 4 4 2 4 1 2 2 3 1 2 2 2 3 2 2 2 2 1 0 2 1 4 4 3 5 4 5 2 1 11 6 6 6 7 6 4 6
6 1 1 2 1 2 1 5 3 4 1 1 1 3 2 4 2 3 1 3 2 1 1 1 3 1 3 1 3 3 5 5 5 2 5 3 6 6 5 3 4 4 4 3 5
4 1 1 2 2 1 3 2 7 5 1 3 5 1 1 0 1 3 2 2 2 4 3 2 1 0 2 1 1 3 1 2 6 1 2 3 7 9 2 5 4 6 4 6 5
1 0 2 4 0 1 3 5 2 2 1 1 2 1 2 3 2 2 3 3 2 2 1 1 4 0 1 1 2 1 3 2 3 1 5 5 6 6 5 4 5 7 6 7 5
3 2 2 3 2 1 3 4 2 2 0 2 2 2 3 3 2 1 3 1 2 3 5 4 2 1 1 4 6 1 1 3 3 3 4 3 7 7 6 6 6 8 5 6 4
2 2 3 1 2 1 2 1 2 2 1 1 1 1 3 2 2 3 3 1 2 1 1 1 2 4 3 2 2 1 5 4 4 5 1 3 8 3 5 5 4 8 6 3 3
2 2 2 2 3 3 1 2 1 2 3 3 3 4 1 3 1 3 1 4 4 1 2 3 3 3 1 1 1 2 3 3 4 2 5 5 6 1 2 6 6 6 5 3 3
2 2 2 2 1 2 2 2 3 2 1 2 1 1 2 2 3 3 2 2 2 4 2 2 3 4 3 2 3 2 3 4 5 3 4 8 9 16 7 7 7 4 4 4 4
2 3 3 2 2 2 2 2 3 4 1 3 2 5 5 1 2 4 3 2 2 2 2 2 3 3 7 11 5 6 6 8 10 6 7 5 7 13 14 8 5 3 4 4 5
3 3 1 2 3 4 4 4 5 3 5 4 4 4 6 5 6 3 2 3 2 2 2 2 2 1 5 2 4 6 9 10 12 3 10 12 23 12 4 4 5 6 5 5 5
3 2 2 5 4 3 4 5 4 3 4 1 4 1 3 7 2 3 3 1 2 1 3 2 2 2 5 2 5 7 7 11 5 4 8 6 11 2 4 5 5 5 7 7 7
Wind_Direction
20 22 15 10 7 7 4 1 3 0 352 340 326 291 272 297 330 333 359 330 323 335 339 328 42 43 35 52 49 91 63 247 247 168 166 13 123 312 326 127 247 23 104 152 140
17 16 12 9 3 359 355 355 350 350 343 326 324 293 293 305 325 231 307 338 338 346 353 24 13 357 35 88 12 99 137 220 162 125 147 116 128 267 264 197 240 91 70 131 130
13 11 8 1 358 353 349 343 338 335 327 313 306 293 304 321 324 191 337 350 2 37 5 321 310 352 129 129 189 166 206 207 190 154 149 193 251 244 210 249 218 210 186 175 157
6 5 2 359 354 351 346 339 333 327 320 301 280 262 299 225 304 167 357 22 51 42 339 326 335 100 146 190 183 237 248 249 175 159 164 210 172 266 212 231 185 204 155 162 172
6 1 359 356 353 350 342 336 329 325 320 290 255 221 171 327 250 185 8 72 87 51 18 24 87 160 183 194 183 209 285 308 338 281 240 175 223 224 241 228 158 159 171 186 183
1 354 352 352 352 348 346 339 330 323 319 263 207 189 159 252 154 53 84 106 65 102 55 37 133 233 175 196 173 278 281 274 275 258 235 218 283 146 253 157 178 178 203 202 189
353 349 346 344 346 347 344 340 334 331 329 179 167 160 283 239 234 19 109 105 76 100 125 84 11 188 144 300 340 339 316 316 232 203 203 111 294 229 232 169 184 212 220 218 196
344 344 341 339 341 344 342 341 346 356 29 146 160 180 243 171 186 45 147 87 89 72 108 109 18 90 172 163 23 323 82 336 16 141 195 121 264 281 200 186 229 216 228 230 203
323 332 334 336 338 341 340 337 350 34 95 149 166 181 286 154 202 236 207 185 212 108 51 286 48 134 50 108 352 351 245 215 303 190 141 192 267 255 198 209 229 226 229 223 189
307 318 325 329 336 341 337 338 43 92 107 224 281 329 309 215 163 198 57 229 222 221 26 84 53 108 73 132 228 195 234 249 239 222 210 253 261 273 255 223 229 230 230 220 203
322 332 324 317 337 345 342 330 20 11 44 243 322 301 150 143 172 101 5 346 303 93 218 217 118 220 215 206 249 143 228 243 248 344 273 249 274 277 276 247 243 229 231 215 166
333 334 330 322 334 358 6 70 127 194 312 313 231 135 107 175 308 185 199 195 183 240 158 31 232 225 201 172 189 184 256 263 282 10 345 302 292 286 281 246 248 224 212 160 134
327 331 330 334 338 33 69 73 152 193 173 306 339 121 170 137 257 215 162 213 211 239 199 193 26 138 167 209 222 208 208 240 238 331 263 311 294 330 261 246 330 41 107 116 150
322 326 342 346 138 80 73 40 123 209 49 246 159 272 189 123 268 200 248 199 242 228 223 241 210 178 202 241 161 282 90 79 17 46 267 43 282 293 274 277 221 195 164 159 147
315 312 346 16 8 84 131 27 257 250 353 207 189 356 3 206 11 200 335 22 231 186 101 263 170 217 172 215 161 209 93 194 135 102 42 3 61 270 358 283 255 223 173 175 229
305 257 202 208 153 135 323 11 147 39 254 13 76 11 326 201 214 115 25 341 295 293 212 241 307 252 201 84 129 116 76 54 58 89 12 234 134 277 204 212 151 105 172 217 297
27 215 173 189 136 260 6 93 38 214 323 309 349 342 311 281 254 50 358 271 248 333 268 176 199 72 337 132 92 78 68 323 349 7 228 245 354 250 264 224 200 191 222 262 272
13 44 112 134 289 301 127 59 156 241 233 98 217 302 257 4 35 344 326 296 260 235 353 334 291 339 3 156 193 174 155 161 226 244 273 347 237 253 222 257 247 246 249 270 282
329 6 6 353 320 238 93 97 206 202 339 7 330 35 272 263 196 5 236 258 97 199 149 302 263 15 53 23 69 173 199 148 100 70 27 233 283 289 233 290 295 287 265 290 278
321 7 8 326 359 107 91 241 210 75 59 285 219 16 292 268 24 76 237 341 93 47 156 25 298 138 87 43 40 124 153 68 12 16 292 287 285 243 303 282 309 295 283 295 290
184 184 345 345 104 65 180 221 208 100 37 173 241 253 253 285 211 234 272 64 5 14 355 149 166 218 7 198 180 85 256 59 114 126 180 298 269 219 218 217 247 277 293 276 275
219 233 9 47 65 348 165 205 74 146 98 193 198 245 204 269 253 250 251 246 53 312 207 155 263 262 244 257 259 228 196 148 122 255 197 147 273 201 216 232 245 282 294 266 217
152 124 52 16 150 233 125 86 92 177 194 180 211 207 148 221 298 239 288 160 167 207 167 157 224 279 251 58 354 233 209 145 119 77 206 145 260 302 277 282 275 270 296 305 286
132 186 348 49 42 153 151 208 214 208 219 208 232 114 117 318 245 278 257 177 166 191 228 333 257 249 248 210 120 233 229 196 138 129 191 231 286 287 298 297 316 290 281 281 283
195 210 172 186 214 195 141 186 180 193 219 211 238 217 177 256 291 235 243 281 170 204 189 214 241 219 264 273 200 231 202 194 201 192 192 258 230 280 294 287 275 269 278 281 275
159 152 60 134 120 142 203 216 219 136 158 219 224 177 202 217 202 260 195 198 327 167 202 190 260 284 270 159 187 258 222 215 219 234 276 273 286 283 290 302 286 257 236 250 246
205 126 121 167 148 158 205 205 206 98 234 231 203 209 249 267 348 318 320 269 211 178 214 220 266 346 268 299 300 295 223 180 195 222 182 188 228 309 299 287 263 259 206 225 221